Погода в Пуэрто-Барриосе

Гватемала     15°43′19″N   88°35′27″W
темп.,
°C
ветер,
м/с
пор.,
м/с
влажн.,
%
обл.,
%
осадки,
мм/ч
давл.,
гПа
погр.,
м
3 августа, вт
вт300:00+24ю119399 3.8 101476
03:00+24ююз1294100 0.9 1012105
06:00+24юз249599 1.1 1013176
09:00+27з248357 0.3 1014416
12:00+30ссз326662 0.6 10121116
15:00+30ссв336747 1.2 1011956
18:00+27всв2684100 1.9 1012389
21:00+25в2594100 1.9 1013142
4 августа, ср
ср400:00+24ююз1394100 2.6 1012104
03:00+23ююз2495100 0.2 1011121
06:00+23ю2393100 0.2 1012104
09:00+29з1170100 0.0 1013571
12:00+30ссв326399 0.0 10121121
15:00+30св3465100 0.0 1011772
18:00+27всв3680100 0.0 1012488
21:00+25в25858 0.0 1014213
5 августа, чт
чт500:00+24ююв11915 0.1 101467
03:00+24ююз239099 0.6 1013125
06:00+24ююз248926 0.8 1014130
09:00+28зюз227433 0.2 1014658
12:00+30ссз326953 0.5 10131049
15:00+29ссв337444 1.2 1012920
18:00+26всв379014 3.1 1012323
21:00+25в3892100 1.6 1014369
6 августа, пт
пт600:00+24вюв2694100 10.3 1014212
03:00+24юв1295100 12.2 101391
06:00+23ююз2497100 17.9 1014156
09:00+27зюз2481100 0.1 1015505
12:00+30ссв236976 2.5 1013959
15:00+29всв4572100 1.9 10121103
18:00+26всв3785100 2.8 1013492
21:00+25ю2391100 3.3 1013172
7 августа, сб
сб700:00+24ююз1294100 4.1 101375
03:00+24зюз239491 1.9 1013117
06:00+24ююз239465 2.9 1013115
09:00+28зюз217553 0.1 1014588
12:00+30с326734 0.1 10131209
15:00+29ссв446824 0.1 1011911
18:00+27всв367758 0.1 1012418
21:00+24вюв2593100 0.9 1014180